Meteopurmerend
purmerend
Purmerend - Baaienwijk



My webcam  My webcam


Onweer radar Meer informatie blitzortung!


Regen radar Meer informatie rain snow radar


Bezoek onze andere website:

CandyAppleRed WebdesignWebdesign Purmerend Candy Apple Red

MeteopurmerendBlog

Template documentation
and downloads



Het weer levert geen direct gevaar op.    Er zijn geen waarschuwingen afgegeven.

15 daagse weersverwachting Oslo (NO)

  • Overzicht
  • Per uur
  • 15 dagen
  • Extra
  • Vergelijk
  • Kaarten
  • Dagkaart
  • Meer »
  • Info
  • Statistieken
  • Directe link
    Temp 6h Neerslag Wind  
 04:18     22:12    Daglengte: 17:54 Vandaag
08:00
10°
5.7 mm
2
14:00
14°
7.0 mm
2
20:00
14°
7.2 mm
4
 04:16     22:14    Daglengte: 17:58 Morgen
02:00
 
2
08:00
10°
 
2
14:00
13°
3.4 mm
4
20:00
12°
3.6 mm
3
 04:15     22:16    Daglengte: 18:01 Zaterdag 28 Mei
02:00
10°
 
4
08:00
12°
 
6
14:00
17°
 
6
20:00
16°
 
5
 04:13     22:18    Daglengte: 18:05 Zondag 29 Mei
02:00
 
3
Locatie info
Region: Oslo
Latitude: 59.9123°N
Longitude: 10.7500°E
26 masl
Postcode: 0155
Temp/Neerslag /Baro Onweer/Dauwpunt
    Temp Baro 1h Neerslag Dauwpunt Wind UV Bewolking  
 04:18     22:12    Daglengte: 17:54 Vandaag
08:00
10°
998.1 hPa 5.7 mm
48%
8.4°
2
Windvlaag: 1.7 m/s
86%
09:00
10°
998.3 hPa
81%
8.2°
2
Windvlaag: -1.5 m/s
86%
10:00
11°
998.7 hPa
81%
8.0°
2
Windvlaag: -1.9 m/s
86%
11:00
11°
999.2 hPa
81%
8.2°
1
Windvlaag: -1.7 m/s
61%
12:00
12°
999.6 hPa
78%
8.9°
1
Windvlaag: -1.4 m/s
56%
13:00
13°
999.8 hPa 3.5 mm
81%
8.5°
1
Windvlaag: -1.4 m/s
20%
14:00
14°
999.8 hPa 3.5 mm
82%
8.0°
2
Windvlaag: -1 m/s
51%
15:00
15°
999.8 hPa
82%
7.8°
3
Windvlaag: 0.2 m/s
43% warningclass
16:00
15°
999.9 hPa 3.5 mm
82%
7.1°
3
Windvlaag: 4.1 m/s
19%
17:00
15°
999.9 hPa 3.6 mm
82%
5.5°
3
Windvlaag: 4.2 m/s
19%
18:00
15°
1000.0 hPa
82%
6.7°
3
Windvlaag: 2 m/s
3%
19:00
15°
999.9 hPa
78%
8.3°
3
Windvlaag: -0.6 m/s
1%
20:00
14°
999.9 hPa
62%
8.4°
4
Windvlaag: 0.9 m/s
1%
21:00
13°
1000.3 hPa
15%
8.3°
4
Windvlaag: -0.2 m/s
1%
22:00
12°
1000.5 hPa
14%
8.2°
3
Windvlaag: 0.1 m/s
1%
23:00
11°
1000.7 hPa
14%
6.2°
2
Windvlaag: -0.6 m/s
2%
 04:16     22:14    Daglengte: 17:58 Morgen
00:00
10°
1000.8 hPa
14%
4.1°
3
Windvlaag: -0.4 m/s
4%
01:00
Voelt als: 7.8°
1000.7 hPa
14%
3.9°
2
Windvlaag: -0.9 m/s
5%
02:00
Voelt als: 6.9°
1000.8 hPa
14%
3.9°
2
Windvlaag: -1.5 m/s
11%
03:00
Voelt als: 7.1°
1000.4 hPa
14%
4.0°
2
Windvlaag: -0.6 m/s
22%
04:00
Voelt als: 6.7°
1000.4 hPa
14%
4.2°
2
Windvlaag: 0.1 m/s
32%
05:00
Voelt als: 7.1°
1000.4 hPa
14%
4.5°
1
Windvlaag: 0.6 m/s
15%
06:00
Voelt als: 7.9°
1000.3 hPa
14%
4.7°
1
Windvlaag: 0.9 m/s
15%
07:00
Voelt als: 8.6°
1000.1 hPa
14%
5.2°
1
Windvlaag: 0.4 m/s
15%
08:00
10°
Voelt als: 9.0°
1000.0 hPa
14%
5.3°
2
Windvlaag: -0.4 m/s
33%
09:00
11°
999.9 hPa
52%
5.2°
3
Windvlaag: -1 m/s
22%
10:00
11°
999.7 hPa
60%
4.6°
3
Windvlaag: -0.6 m/s
13%
11:00
12°
999.4 hPa
69%
3.6°
3
Windvlaag: -0.3 m/s
33%
12:00
13°
999.3 hPa
32%
2.4°
3
Windvlaag: -1.7 m/s
79%
13:00
13°
999.5 hPa
37%
-0.3°
4
Windvlaag: -2.7 m/s
77%
14:00
13°
999.5 hPa 3.4 mm
71%
-2.8°
4
Windvlaag: -2.3 m/s
71%
15:00
13°
999.4 hPa 3.6 mm
79%
0.3°
5
Windvlaag: -5.3 m/s
72%
16:00
13°
999.5 hPa
82%
3.6°
5
Windvlaag: -6 m/s
84%
17:00
12°
999.6 hPa
82%
4.9°
5
Windvlaag: -6.6 m/s
84%
18:00
11°
999.8 hPa
77%
7.1°
4
Windvlaag: -6.1 m/s
85%
19:00
11°
999.9 hPa
30%
7.2°
4
Windvlaag: -5.1 m/s
86%
20:00
12°
1000.0 hPa
19%
7.3°
3
Windvlaag: -3.4 m/s
55%
21:00
12°
1000.5 hPa
14%
6.6°
4
Windvlaag: -4.6 m/s
21%
22:00
11°
1001.0 hPa
14%
5.8°
4
Windvlaag: -5.7 m/s
21%
23:00
10°
1001.4 hPa
14%
5.5°
4
Windvlaag: -6.3 m/s
67%
 04:15     22:16    Daglengte: 18:01 Zaterdag 28 Mei
00:00
10°
1001.7 hPa
14%
5.4°
5
Windvlaag: -6.1 m/s
72%
01:00
10°
1001.8 hPa
19%
5.3°
4
Windvlaag: -6.4 m/s
76%
02:00
10°
1001.9 hPa
20%
5.2°
4
Windvlaag: -5.1 m/s
68%
03:00
10°
1001.9 hPa
22%
4.8°
5
Windvlaag: -5.1 m/s
69%
04:00
10°
Voelt als: 7.6°
1002.0 hPa
22%
4.6°
5
Windvlaag: -4.9 m/s
64%
05:00
11°
1002.2 hPa
29%
2.4°
5
Windvlaag: -4 m/s
94%
06:00
11°
1002.4 hPa
64%
2.2°
5
Windvlaag: -3.3 m/s
60%
07:00
12°
1002.6 hPa
25%
2.3°
6
Windvlaag: -4 m/s
66%
08:00
12°
1003.0 hPa
26%
2.1°
6
Windvlaag: -4.6 m/s
86%
09:00
13°
1003.3 hPa
88%
2.1°
5
Windvlaag: -4.8 m/s
85%
10:00
13°
1003.7 hPa
92%
1.7°
5
Windvlaag: -4.8 m/s
65%
11:00
15°
1003.9 hPa
33%
1.9°
6
Windvlaag: -6.1 m/s
69%
12:00
15°
1004.2 hPa
39%
1.4°
6
Windvlaag: -6.8 m/s
72%
13:00
16°
1004.3 hPa
40%
1.5°
6
Windvlaag: -6.8 m/s
63%
14:00
17°
1004.7 hPa
26%
1.3°
6
Windvlaag: -6.4 m/s
62%
15:00
17°
1004.9 hPa
22%
1.2°
6
Windvlaag: -5.5 m/s
56%
16:00
17°
1005.2 hPa
21%
1.4°
6
Windvlaag: -4.7 m/s
44%
17:00
17°
1005.2 hPa
21%
1.4°
5
Windvlaag: -5 m/s
43%
18:00
17°
1005.7 hPa
21%
1.3°
6
Windvlaag: -5.1 m/s
57%
19:00
16°
1006.1 hPa
21%
-0.0°
6
Windvlaag: -4.8 m/s
65%
20:00
16°
1006.6 hPa
21%
0.0°
5
Windvlaag: -4.8 m/s
26%
21:00
14°
1006.9 hPa
21%
1.8°
4
Windvlaag: -3.4 m/s
12%
22:00
12°
1007.5 hPa
21%
1.4°
4
Windvlaag: -1 m/s
27%
23:00
11°
1007.9 hPa
21%
0.8°
4
Windvlaag: -1.8 m/s
26%
 04:13     22:18    Daglengte: 18:05 Zondag 29 Mei
00:00
10°
1007.6 hPa
21%
0.6°
4
Windvlaag: 10.3 m/s
0%
01:00
10°
Voelt als: 8.0°
1007.7 hPa
21%
1.3°
3
Windvlaag: 11.4 m/s
0%
02:00
Voelt als: 7.5°
1007.7 hPa
21%
1.9°
3
Windvlaag: 12.2 m/s
54%
03:00
Voelt als: 7.4°
1007.7 hPa
21%
2.0°
2
Windvlaag: 12.7 m/s
72%
04:00
Voelt als: 7.0°
1007.7 hPa
21%
1.8°
2
Windvlaag: 12.7 m/s
80%
05:00
Voelt als: 6.9°
1007.7 hPa
21%
1.1°
2
Windvlaag: 12.3 m/s
80%
06:00
Voelt als: 7.4°
1007.6 hPa
21%
-0.8°
2
Windvlaag: 4.3 m/s
63%
07:00
10°
Voelt als: 9.4°
1007.6 hPa
21%
0.6°
1
Windvlaag: 10.8 m/s
49%
Temp/Neerslag /Baro Onweer/Dauwpunt
    Temp Baro Neerslag Dauwpunt Wind Bewolking  
 04:18     22:12    Daglengte: 17:54 Vandaag
08:00
10°
998.1 hPa 5.7 mm 8.4°
2
86%
11:00
11°
999.2 hPa   8.2°
1
61%
14:00
14°
999.8 hPa 7.0 mm 8.0°
2
51%
17:00
15°
999.9 hPa 7.2 mm 5.5°
3
19%
20:00
14°
999.9 hPa   8.4°
4
1%
23:00
11°
1000.7 hPa   6.2°
2
2%
 04:16     22:14    Daglengte: 17:58 Morgen
02:00
Voelt als: 6.9°
1000.8 hPa   3.9°
2
11%
05:00
Voelt als: 7.1°
1000.4 hPa   4.5°
1
15%
08:00
10°
Voelt als: 9.0°
1000.0 hPa   5.3°
2
33%
11:00
12°
999.4 hPa   3.6°
3
33%
14:00
13°
999.5 hPa 3.4 mm -2.8°
4
71%
17:00
12°
999.6 hPa 3.6 mm 4.9°
5
84%
20:00
12°
1000.0 hPa   7.3°
3
55%
23:00
10°
1001.4 hPa   5.5°
4
67%
 04:15     22:16    Daglengte: 18:01 Zaterdag 28 Mei
02:00
10°
1001.9 hPa   5.2°
4
68%
05:00
11°
1002.2 hPa   2.4°
5
94%
08:00
12°
1003.0 hPa   2.1°
6
86%
11:00
15°
1003.9 hPa   1.9°
6
69%
14:00
17°
1004.7 hPa   1.3°
6
62%
17:00
17°
1005.2 hPa   1.4°
5
43%
20:00
16°
1006.6 hPa   0.0°
5
26%
23:00
11°
1007.9 hPa   0.8°
4
26%
 04:13     22:18    Daglengte: 18:05 Zondag 29 Mei
02:00
Voelt als: 7.5°
1007.7 hPa   1.9°
3
54%
05:00
Voelt als: 6.9°
1007.7 hPa   1.1°
2
80%
08:00
11°
1007.7 hPa   -0.1°
2
55%
11:00
16°
1007.5 hPa 16.9 mm 0.2°
1
1%
14:00
18°
1007.0 hPa 16.9 mm 0.5°
1
1%
17:00
17°
1006.9 hPa 16.9 mm 0.3°
2
1%
20:00
15°
1007.6 hPa 16.9 mm 3.6°
3
1%
23:00
10°
Voelt als: 7.8°
1010.5 hPa 16.9 mm 5.7°
3
1%
 04:12     22:20    Daglengte: 18:08 Maandag 30 Mei
02:00
Voelt als: 5.3°
1011.5 hPa 16.9 mm 5.6°
2
1%
05:00
Voelt als: 6.2°
1011.5 hPa 16.9 mm 4.9°
2
1%
08:00
11°
1011.4 hPa 16.9 mm 5.5°
2
1%
11:00
14°
1011.0 hPa 16.9 mm 5.7°
2
1%
14:00
15°
1010.7 hPa 17.2 mm 6.3°
3
1%
17:00
16°
1009.8 hPa 17.6 mm 6.7°
1
1%
20:00
15°
1009.6 hPa 17.8 mm 6.6°
1
1%
23:00
10°
1010.5 hPa 17.8 mm 7.0°
1
1%
 04:10     22:22    Daglengte: 18:12 Dinsdag 31 Mei
02:00
Voelt als: 7.6°
1011.3 hPa 17.8 mm 6.5°
1
0%
05:00
Voelt als: 8.2°
1011.7 hPa 17.8 mm 6.6°
0
1%
08:00
12°
1012.2 hPa 17.9 mm 6.0°
1
1%
11:00
15°
1012.1 hPa 18.1 mm 6.7°
2
1%
14:00
13°
1012.5 hPa 19.5 mm 9.4°
3
1%
17:00
15°
1011.8 hPa 20.0 mm 9.0°
1
1%
20:00
14°
1012.0 hPa 20.9 mm 10.7°
2
1%
23:00
1013.6 hPa 21.0 mm 7.3°
1
1%
 04:09     22:23    Daglengte: 18:14 Woensdag 01 Jun
02:00
1013.9 hPa 21.0 mm 6.2°
1
0%
05:00
Voelt als: 6.7°
1014.5 hPa 21.0 mm 6.1°
1
0%
08:00
12°
1014.7 hPa 21.0 mm 9.3°
0
0%
11:00
17°
1013.7 hPa 21.5 mm 8.4°
1
0%
14:00
20°
1012.7 hPa 21.6 mm 4.5°
2
0%
17:00
19°
1012.6 hPa 21.6 mm 4.5°
3
1%
20:00
16°
1013.0 hPa 21.6 mm 8.3°
4
1%
23:00
10°
Voelt als: 9.8°
1014.2 hPa 21.6 mm 8.9°
1
0%
 04:07     22:25    Daglengte: 18:18 Donderdag 02 Jun
02:00
1014.9 hPa 21.6 mm 8.1°
0
0%
05:00
Voelt als: 8.5°
1015.5 hPa   7.7°
1
0%
08:00
15°
1015.8 hPa 43.1 mm 7.4°
2
0%
14:00
22°
1015.3 hPa 43.1 mm 8.4°
1
0%
20:00
18°
1015.6 hPa 43.1 mm 8.3°
3
1%
 04:06     22:27    Daglengte: 18:21 Vrijdag 03 Jun
02:00
13°
1018.9 hPa 43.3 mm 8.5°
1
1%
08:00
15°
1019.3 hPa 43.6 mm 6.4°
2
0%
14:00
22°
1018.6 hPa 43.6 mm 7.2°
1
1%
20:00
19°
1019.4 hPa 43.6 mm 9.6°
2
1%
 04:05     22:28    Daglengte: 18:23 Zaterdag 04 Jun
02:00
13°
1022.2 hPa 43.6 mm 8.6°
2
1%
08:00
18°
1024.0 hPa 43.6 mm 8.7°
1
0%
14:00
24°
1022.5 hPa 43.6 mm 6.1°
2
0%
20:00
21°
1022.2 hPa 43.6 mm 9.5°
3
1%
 04:04     22:30    Daglengte: 18:26 Zondag 05 Jun
02:00
10°
1015.3 hPa 0.5 mm 7.8°
1
59%
08:00
13°
1015.1 hPa 0.7 mm 8.0°
2
59%
14:00
19°
1014.1 hPa 0.7 mm 8.1°
1
61%
20:00
17°
1013.1 hPa 0.7 mm 8.6°
1
63%
 04:03     22:31    Daglengte: 18:28 Maandag 06 Jun
02:00
11°
1014.7 hPa 0.3 mm 7.3°
1
63%
08:00
13°
1014.6 hPa 0.4 mm 8.4°
1
58%
14:00
19°
1013.3 hPa 1.1 mm 8.7°
0
63%
20:00
18°
1011.8 hPa 0.8 mm 9.6°
1
61%
 04:02     22:33    Daglengte: 18:31 Dinsdag 07 Jun
02:00
11°
1012.9 hPa 0.3 mm 8.3°
1
45%
08:00
14°
1012.2 hPa 0.7 mm 8.8°
1
63%
14:00
19°
1010.4 hPa 0.3 mm 8.7°
1
71%
20:00
17°
1009.2 hPa 1.2 mm 10.2°
1
68%
 04:01     22:34    Daglengte: 18:33 Woensdag 08 Jun
02:00
11°
1010.3 hPa 0.7 mm 8.7°
0
68%
08:00
14°
1010.1 hPa 0.8 mm 9.4°
1
69%
14:00
19°
1009.1 hPa 1.4 mm 9.8°
1
63%
20:00
16°
1008.5 hPa 1.4 mm 10.0°
1
72%
 04:00     22:35    Daglengte: 18:35 Donderdag 09 Jun
02:00
11°
1009.8 hPa 0.5 mm 8.3°
0
77%
08:00
13°
1009.8 hPa 0.3 mm 8.6°
0
87%
14:00
18°
1009.1 hPa 0.7 mm 8.7°
1
70%
20:00
17°
1008.4 hPa 0.7 mm 10.2°
1
71%
 03:59     22:36    Daglengte: 18:37 Vrijdag 10 Jun
02:00
11°
1009.7 hPa 0.5 mm 8.9°
0
58%
  CAPE Lifted Index Hail Supercell Tornado SRH 3km CL BTM PRES CL TOP PRES Swiss DWD icon SMHI TS
 04:18     22:12    Daglengte: 17:54 Vandaag
08:00 0 J/kg 1.0 K 0 % 0 % 0 % 0 m²/s² 0 0 1.66 61
09:00 15 J/kg 1.0 K 0 % 0 % 0 % 0 m²/s² 0 0 1.6 3
10:00 33 J/kg 0.3 K 0 % 0 % 0 % 0 m²/s² 0 0 0.69 3
11:00 26 J/kg 0.4 K 0 % 0 % 0 % 0 m²/s² 0 0 0.76 61
12:00 30 J/kg 0.1 K 0 % 0 % 0 % 0 m²/s² 0 0 0.55 3
13:00 300 J/kg -1.5 K 0 % 0 % 0 % 0 m²/s² 0 0 -0.99 2
14:00 248 J/kg -1.2 K 0 % 0 % 0 % 0 m²/s² 0 0 -0.75 3
15:00 189 J/kg -0.8 K 0 % 0 % 0 % 0 m²/s² 0 0 -0.11 95
16:00 134 J/kg -0.4 K 0 % 0 % 0 % 0 m²/s² 0 0 0.71 80
17:00 88 J/kg 0.2 K 0 % 0 % 0 % 0 m²/s² 0 0 1.82 2
18:00 33 J/kg 0.9 K 0 % 0 % 0 % 0 m²/s² 0 0 4.17 80
19:00 12 J/kg 1.4 K 0 % 0 % 0 % 0 m²/s² 0 0 5.12 1
20:00 16 J/kg 1.4 K 0 % 0 % 0 % 0 m²/s² 0 0 5.3 1
21:00 0 J/kg 2.0 K 0 % 0 % 0 % 0 m²/s² 0 0 5.78 1
22:00 0 J/kg 1.9 K 0 % 0 % 0 % 0 m²/s² 0 0 5.5 2
23:00 0 J/kg 2.0 K 0 % 0 % 0 % 0 m²/s² 0 0 5.96 1
 04:16     22:14    Daglengte: 17:58 Morgen
00:00 0 J/kg 2.6 K 0 % 0 % 0 % 0 m²/s² 0 0 7.1 1
01:00 0 J/kg 3.7 K 0 % 0 % 0 % 0 m²/s² 0 0 8.44 2
02:00 0 J/kg 2.5 K 0 % 0 % 0 % 0 m²/s² 0 0 6.07 2
03:00 0 J/kg 1.9 K 0 % 0 % 0 % 0 m²/s² 0 0 4.33 2
04:00 0 J/kg 1.9 K 0 % 0 % 0 % 0 m²/s² 0 0 4.93 3
05:00 0 J/kg 1.9 K 0 % 0 % 0 % 0 m²/s² 0 0 5.86 2
06:00 0 J/kg 2.3 K 0 % 0 % 0 % 0 m²/s² 0 0 6.35 1
07:00 0 J/kg 3.0 K 0 % 0 % 0 % 0 m²/s² 0 0 6.39 1
08:00 0 J/kg 3.6 K 0 % 0 % 0 % 0 m²/s² 0 0 6.48 3
09:00 0 J/kg 3.1 K 0 % 0 % 0 % 0 m²/s² 0 0 6.16 2
10:00 5 J/kg 3.2 K 0 % 0 % 0 % 0 m²/s² 0 0 6.32 3
11:00 1 J/kg 3.3 K 0 % 0 % 0 % 0 m²/s² 0 0 7.05 3
12:00 13 J/kg 2.9 K 0 % 0 % 0 % 0 m²/s² 0 0 7.52 3
13:00 18 J/kg 2.7 K 0 % 0 % 0 % 0 m²/s² 0 0 6.66 3
14:00 7 J/kg 2.9 K 0 % 0 % 0 % 0 m²/s² 0 0 6.05 61
15:00 22 J/kg 2.2 K 0 % 0 % 0 % 0 m²/s² 0 0 2.71 61
16:00 11 J/kg 2.1 K 0 % 0 % 0 % 0 m²/s² 0 0 2.55 61
17:00 11 J/kg 1.3 K 0 % 0 % 0 % 0 m²/s² 0 0 1.69 61
18:00 16 J/kg 0.6 K 0 % 0 % 0 % 0 m²/s² 0 0 0.96 61
19:00 163 J/kg -0.5 K 0 % 0 % 0 % 0 m²/s² 0 0 -0.11 3
20:00 47 J/kg 0.2 K 0 % 0 % 0 % 0 m²/s² 0 0 0.77 3
21:00 1 J/kg 1.9 K 0 % 0 % 0 % 0 m²/s² 0 0 2.26 2
22:00 0 J/kg 3.3 K 0 % 0 % 0 % 0 m²/s² 0 0 3.57 2
23:00 0 J/kg 4.4 K 0 % 0 % 0 % 0 m²/s² 0 0 4.67 3
 04:15     22:16    Daglengte: 18:01 Zaterdag 28 Mei
00:00 0 J/kg 4.3 K 0 % 0 % 0 % 0 m²/s² 0 0 4.75 3
01:00 0 J/kg 3.7 K 0 % 0 % 0 % 0 m²/s² 0 0 4.33 3
02:00 0 J/kg 2.8 K 0 % 0 % 0 % 0 m²/s² 0 0 3.13 3
03:00 0 J/kg 3.2 K 0 % 0 % 0 % 0 m²/s² 0 0 3.98 3
04:00 0 J/kg 3.4 K 0 % 0 % 0 % 0 m²/s² 0 0 4.42 3
05:00 0 J/kg 3.7 K 0 % 0 % 0 % 0 m²/s² 0 0 4.27 3
06:00 0 J/kg 5.3 K 0 % 0 % 0 % 0 m²/s² 0 0 6.14 3
07:00 0 J/kg 6.2 K 0 % 0 % 0 % 0 m²/s² 0 0 8.15 3
08:00 0 J/kg 6.3 K 0 % 0 % 0 % 0 m²/s² 0 0 7.41 3
09:00 0 J/kg 5.6 K 0 % 0 % 0 % 0 m²/s² 0 0 7.1 3
10:00 0 J/kg 5.1 K 0 % 0 % 0 % 0 m²/s² 0 0 6.48 3
11:00 0 J/kg 4.6 K 0 % 0 % 0 % 0 m²/s² 0 0 5.89 3
12:00 0 J/kg 4.4 K 0 % 0 % 0 % 0 m²/s² 0 0 5.57 3
13:00 0 J/kg 3.8 K 0 % 0 % 0 % 0 m²/s² 0 0 5.12 3
14:00 2 J/kg 3.2 K 0 % 0 % 0 % 0 m²/s² 0 0 4.82 3
15:00 0 J/kg 2.6 K 0 % 0 % 0 % 0 m²/s² 0 0 4.58 3
16:00 3 J/kg 2.5 K 0 % 0 % 0 % 0 m²/s² 0 0 4.78 2
17:00 6 J/kg 2.7 K 0 % 0 % 0 % 0 m²/s² 0 0 5.49 3
18:00 1 J/kg 3.0 K 0 % 0 % 0 % 0 m²/s² 0 0 6.21 3
19:00 0 J/kg 4.2 K 0 % 0 % 0 % 0 m²/s² 0 0 7.92 3
20:00 0 J/kg 4.5 K 0 % 0 % 0 % 0 m²/s² 0 0 8.52 2
21:00 0 J/kg 4.6 K 0 % 0 % 0 % 0 m²/s² 0 0 9.28 2
22:00 0 J/kg 5.3 K 0 % 0 % 0 % 0 m²/s² 0 0 10.22 3
23:00 0 J/kg 6.1 K 0 % 0 % 0 % 0 m²/s² 0 0 10.87 3
 04:13     22:18    Daglengte: 18:05 Zondag 29 Mei
00:00 0 J/kg 7.2 K 0 % 0 % 0 % 0 m²/s² 0 0 11.85 2
01:00 0 J/kg 7.4 K 0 % 0 % 0 % 0 m²/s² 0 0 11.69 1
02:00 0 J/kg 7.2 K 0 % 0 % 0 % 0 m²/s² 0 0 11.07 2
03:00 0 J/kg 7.1 K 0 % 0 % 0 % 0 m²/s² 0 0 10.4 3
04:00 0 J/kg 7.7 K 0 % 0 % 0 % 0 m²/s² 0 0 10.49 3
05:00 0 J/kg 8.3 K 0 % 0 % 0 % 0 m²/s² 0 0 10.58 3
06:00 0 J/kg 8.7 K 0 % 0 % 0 % 0 m²/s² 0 0 10.5 3
07:00 0 J/kg 8.8 K 0 % 0 % 0 % 0 m²/s² 0 0 10.15 2
Temp Baro Wind Neerslag
  EWN Forecast EWN WRFDA DWD ICON FMI HIRLAM MET Norway GFS
 04:18     22:12    Daglengte: 17:54 Vandaag
08:00 10.0° 998.1 hPa 2.3 m/s 5.7 mm 9.1° 996.0 hPa 3.2 m/s 15.3 mm 10.0° 999.3 hPa 2.2 m/s 2.9 mm 10.1° 998.0 hPa 2.8 m/s 0.0 mm 8.8° 998.3 hPa 1.2 m/s
11:00 11.1° 999.2 hPa 1.3 m/s 0.0 mm 11.9° 997.3 hPa 1.9 m/s 46.4 mm 11.3° 999.8 hPa 0.9 m/s 0.1 mm 10.5° 999.4 hPa 2.2 m/s 0.0 mm 9.6° 999.7 hPa 0.4 m/s
14:00 13.9° 999.8 hPa 2.2 m/s 7.0 mm 16.2° 997.5 hPa 5.7 m/s 47.1 mm 13.7° 1000.3 hPa 1.9 m/s 0.6 mm 13.5° 1000.1 hPa 1.7 m/s 0.0 mm 14.8° 999.2 hPa 0.4 m/s
17:00 14.8° 999.9 hPa 2.7 m/s 7.2 mm 17.3° 997.8 hPa 6.4 m/s 47.2 mm 14.4° 1000.6 hPa 2.1 m/s 1.2 mm 15.9° 1000.1 hPa 3.0 m/s 0.0 mm 16.1° 998.4 hPa 2.0 m/s
20:00 14.4° 999.9 hPa 3.8 m/s 0.0 mm 14.9° 998.6 hPa 6.3 m/s 47.3 mm 14.6° 999.5 hPa 3.9 m/s 0.6 mm 13.1° 1000.5 hPa 0.8 m/s 0.0 mm 14.9° 998.0 hPa 3.1 m/s
23:00 10.8° 1000.7 hPa 2.4 m/s 0.0 mm 10.8° 999.5 hPa 5.5 m/s 47.3 mm 10.7° 1000.0 hPa 1.7 m/s 0.0 mm 10.6° 1001.8 hPa 1.5 m/s 0.0 mm 9.4° 998.9 hPa 2.2 m/s
 04:16     22:14    Daglengte: 17:58 Morgen
02:00 8.1° 1000.8 hPa 2.1 m/s 0.0 mm 8.2° 998.7 hPa 4.6 m/s 47.3 mm 7.4° 999.8 hPa 2.0 m/s 0.0 mm 7.9° 1001.9 hPa 1.0 m/s 0.0 mm 7.6° 999.3 hPa 4.0 m/s
05:00 7.6° 1000.4 hPa 1.3 m/s 0.0 mm 7.3° 998.3 hPa 4.1 m/s 47.3 mm 6.8° 999.5 hPa 1.3 m/s 0.0 mm 7.6° 1002.0 hPa 0.7 m/s 0.0 mm 7.5° 999.2 hPa 3.3 m/s
08:00 9.6° 1000.0 hPa 1.8 m/s 0.0 mm 10.7° 998.4 hPa 3.2 m/s 47.3 mm 10.2° 998.9 hPa 2.4 m/s 0.0 mm 9.1° 1001.5 hPa 1.4 m/s 0.0 mm 8.3° 998.8 hPa 4.0 m/s
11:00 12.1° 999.4 hPa 2.9 m/s 0.0 mm 13.7° 997.9 hPa 3.2 m/s 47.3 mm 10.9° 999.2 hPa 4.9 m/s 0.1 mm 12.0° 1000.8 hPa 2.6 m/s 0.0 mm 7.9° 999.5 hPa 3.1 m/s
14:00 13.1° 999.5 hPa 3.7 m/s 3.4 mm 15.4° 996.8 hPa 4.2 m/s 47.3 mm 9.6° 1000.0 hPa 6.0 m/s 0.1 mm 15.2° 999.9 hPa 3.5 m/s 0.0 mm 7.1° 999.9 hPa 3.1 m/s
17:00 12.1° 999.6 hPa 5.0 m/s 3.6 mm 14.6° 997.2 hPa 5.4 m/s 47.3 mm 9.5° 1000.0 hPa 5.2 m/s 3.2 mm 13.5° 999.8 hPa 2.8 m/s 0.0 mm 7.7° 999.7 hPa 2.6 m/s
20:00 11.8° 1000.0 hPa 3.2 m/s 0.0 mm 13.5° 998.0 hPa 5.4 m/s 49.3 mm 11.8° 1000.2 hPa 2.9 m/s 0.1 mm 11.9° 1000.6 hPa 1.6 m/s 0.0 mm 11.7° 999.1 hPa 2.8 m/s
23:00 10.3° 1001.4 hPa 3.9 m/s 0.0 mm 10.7° 999.3 hPa 6.5 m/s 49.3 mm 10.0° 1001.6 hPa 3.1 m/s 0.0 mm 10.6° 1001.8 hPa 3.0 m/s 0.0 mm 8.3° 1001.4 hPa 2.0 m/s
 04:15     22:16    Daglengte: 18:01 Zaterdag 28 Mei
02:00 10.1° 1001.9 hPa 4.2 m/s 0.0 mm 10.9° 999.0 hPa 5.5 m/s 49.3 mm 9.9° 1002.2 hPa 3.1 m/s 0.0 mm 9.8° 1001.7 hPa 3.9 m/s 0.0 mm 8.2° 1002.1 hPa 2.3 m/s
05:00 10.5° 1002.2 hPa 4.8 m/s 0.0 mm 11.2° 999.9 hPa 7.2 m/s 49.3 mm 10.3° 1002.4 hPa 3.5 m/s 0.0 mm 6.5° 1003.1 hPa 2.0 m/s
08:00 12.2° 1003.0 hPa 6.0 m/s 0.0 mm 14.1° 1001.5 hPa 8.3 m/s 49.3 mm 11.9° 1002.8 hPa 3.7 m/s 0.0 mm 11.7° 1003.6 hPa 2.5 m/s
11:00 14.8° 1003.9 hPa 6.0 m/s 0.0 mm 17.1° 1002.2 hPa 7.4 m/s 49.3 mm 14.5° 1003.8 hPa 3.8 m/s 0.1 mm 16.9° 1004.1 hPa 5.0 m/s
14:00 16.6° 1004.7 hPa 6.3 m/s 0.0 mm 19.1° 1002.9 hPa 6.8 m/s 49.4 mm 16.2° 1004.6 hPa 6.4 m/s 0.0 mm 18.3° 1004.6 hPa 3.9 m/s
17:00 17.1° 1005.2 hPa 5.4 m/s 0.0 mm 19.1° 1003.4 hPa 6.9 m/s 49.4 mm 16.7° 1005.1 hPa 5.2 m/s 0.0 mm 19.2° 1005.0 hPa 4.5 m/s
20:00 15.5° 1006.6 hPa 4.9 m/s 0.0 mm 16.3° 1004.7 hPa 5.7 m/s 49.4 mm 14.8° 1006.4 hPa 4.5 m/s 0.0 mm 16.5° 1005.5 hPa 3.3 m/s
23:00 11.4° 1007.9 hPa 4.2 m/s 0.0 mm 11.0° 1005.7 hPa 4.2 m/s 49.4 mm 11.2° 1007.6 hPa 3.9 m/s 0.0 mm 9.2° 1007.2 hPa 1.3 m/s
 04:13     22:18    Daglengte: 18:05 Zondag 29 Mei
02:00 8.9° 1007.7 hPa 2.5 m/s 0.0 mm 6.5° 1005.7 hPa 2.4 m/s 49.4 mm 9.5° 1008.2 hPa 2.5 m/s 0.0 mm 6.9° 1007.9 hPa 0.8 m/s
05:00 7.9° 1007.7 hPa 1.7 m/s 0.0 mm 5.8° 1005.4 hPa 3.0 m/s 49.4 mm 8.4° 1008.3 hPa 1.4 m/s 0.0 mm 6.1° 1008.3 hPa 1.2 m/s
08:00 10.8° 1007.7 hPa 2.1 m/s 0.0 mm 10.9° 1005.1 hPa 4.1 m/s 49.4 mm 10.8° 1008.3 hPa 1.6 m/s 0.0 mm 12.1° 1008.3 hPa 0.5 m/s
11:00 15.7° 1007.5 hPa 1.5 m/s 16.9 mm 15.7° 1007.5 hPa 1.5 m/s 16.9 mm
14:00 17.5° 1007.0 hPa 1.2 m/s 16.9 mm 17.5° 1007.0 hPa 1.2 m/s 16.9 mm
17:00 17.3° 1006.9 hPa 2.0 m/s 16.9 mm 17.3° 1006.9 hPa 2.0 m/s 16.9 mm
20:00 15.2° 1007.6 hPa 3.1 m/s 16.9 mm 15.2° 1007.6 hPa 3.1 m/s 16.9 mm
23:00 9.5° 1010.5 hPa 3.2 m/s 16.9 mm 9.5° 1010.5 hPa 3.2 m/s 16.9 mm
 04:12     22:20    Daglengte: 18:08 Maandag 30 Mei
02:00 6.9° 1011.5 hPa 2.3 m/s 16.9 mm 6.9° 1011.5 hPa 2.3 m/s 16.9 mm
05:00 7.0° 1011.5 hPa 1.6 m/s 16.9 mm 7.0° 1011.5 hPa 1.6 m/s 16.9 mm
08:00 10.9° 1011.4 hPa 1.6 m/s 16.9 mm 10.9° 1011.4 hPa 1.6 m/s 16.9 mm
11:00 13.7° 1011.0 hPa 2.2 m/s 16.9 mm 13.7° 1011.0 hPa 2.2 m/s 16.9 mm
14:00 15.3° 1010.7 hPa 2.5 m/s 17.2 mm 15.3° 1010.7 hPa 2.5 m/s 17.2 mm
17:00 15.9° 1009.8 hPa 1.0 m/s 17.6 mm 15.9° 1009.8 hPa 1.0 m/s 17.6 mm
20:00 14.7° 1009.6 hPa 1.1 m/s 17.8 mm 14.7° 1009.6 hPa 1.1 m/s 17.8 mm
23:00 9.7° 1010.5 hPa 0.5 m/s 17.8 mm 9.7° 1010.5 hPa 0.5 m/s 17.8 mm
 04:10     22:22    Daglengte: 18:12 Dinsdag 31 Mei
02:00 7.6° 1011.3 hPa 0.6 m/s 17.8 mm 7.6° 1011.3 hPa 0.6 m/s 17.8 mm
05:00 8.2° 1011.7 hPa 0.4 m/s 17.8 mm 8.2° 1011.7 hPa 0.4 m/s 17.8 mm
08:00 11.7° 1012.2 hPa 1.3 m/s 17.9 mm 11.7° 1012.2 hPa 1.3 m/s 17.9 mm
11:00 15.4° 1012.1 hPa 2.1 m/s 18.1 mm 15.4° 1012.1 hPa 2.1 m/s 18.1 mm
14:00 13.3° 1012.5 hPa 3.4 m/s 19.5 mm 13.3° 1012.5 hPa 3.4 m/s 19.5 mm
17:00 15.3° 1011.8 hPa 1.1 m/s 20.0 mm 15.3° 1011.8 hPa 1.1 m/s 20.0 mm
20:00 13.7° 1012.0 hPa 1.7 m/s 20.9 mm 13.7° 1012.0 hPa 1.7 m/s 20.9 mm
23:00 8.6° 1013.6 hPa 0.6 m/s 21.0 mm 8.6° 1013.6 hPa 0.6 m/s 21.0 mm
 04:09     22:23    Daglengte: 18:14 Woensdag 01 Jun
02:00 7.3° 1013.9 hPa 0.6 m/s 21.0 mm 7.3° 1013.9 hPa 0.6 m/s 21.0 mm
05:00 7.0° 1014.5 hPa 1.1 m/s 21.0 mm 7.0° 1014.5 hPa 1.1 m/s 21.0 mm
08:00 12.4° 1014.7 hPa 0.5 m/s 21.0 mm 12.4° 1014.7 hPa 0.5 m/s 21.0 mm
11:00 17.2° 1013.7 hPa 1.0 m/s 21.5 mm 17.2° 1013.7 hPa 1.0 m/s 21.5 mm
14:00 20.1° 1012.7 hPa 1.5 m/s 21.6 mm 20.1° 1012.7 hPa 1.5 m/s 21.6 mm
17:00 19.3° 1012.6 hPa 2.7 m/s 21.6 mm 19.3° 1012.6 hPa 2.7 m/s 21.6 mm
20:00 16.5° 1013.0 hPa 3.7 m/s 21.6 mm 16.5° 1013.0 hPa 3.7 m/s 21.6 mm
23:00 10.0° 1014.2 hPa 1.4 m/s 21.6 mm 10.0° 1014.2 hPa 1.4 m/s 21.6 mm
 04:07     22:25    Daglengte: 18:18 Donderdag 02 Jun
02:00 8.7° 1014.9 hPa 0.3 m/s 21.6 mm 8.7° 1014.9 hPa 0.3 m/s 21.6 mm
05:00 8.8° 1015.5 hPa 1.3 m/s 21.6 mm 8.8° 1015.5 hPa 1.3 m/s 21.6 mm
08:00 15.0° 1015.8 hPa 1.9 m/s 21.6 mm 15.0° 1015.8 hPa 1.9 m/s 21.6 mm
14:00 21.9° 1015.3 hPa 1.5 m/s 21.6 mm 21.9° 1015.3 hPa 1.5 m/s 21.6 mm
20:00 17.7° 1015.6 hPa 2.7 m/s 21.6 mm 17.7° 1015.6 hPa 2.7 m/s 21.6 mm
 04:06     22:27    Daglengte: 18:21 Vrijdag 03 Jun
02:00 12.8° 1018.9 hPa 1.3 m/s 21.8 mm 12.8° 1018.9 hPa 1.3 m/s 21.8 mm
08:00 14.8° 1019.3 hPa 2.0 m/s 21.8 mm 14.8° 1019.3 hPa 2.0 m/s 21.8 mm
14:00 22.3° 1018.6 hPa 1.4 m/s 21.8 mm 22.3° 1018.6 hPa 1.4 m/s 21.8 mm
20:00 18.7° 1019.4 hPa 2.3 m/s 21.8 mm 18.7° 1019.4 hPa 2.3 m/s 21.8 mm
 04:05     22:28    Daglengte: 18:23 Zaterdag 04 Jun
02:00 12.7° 1022.2 hPa 1.9 m/s 21.8 mm 12.7° 1022.2 hPa 1.9 m/s 21.8 mm
08:00 17.8° 1024.0 hPa 1.1 m/s 21.8 mm 17.8° 1024.0 hPa 1.1 m/s 21.8 mm
14:00 24.5° 1022.5 hPa 2.1 m/s 21.8 mm 24.5° 1022.5 hPa 2.1 m/s 21.8 mm
20:00 21.3° 1022.2 hPa 3.1 m/s 21.8 mm 21.3° 1022.2 hPa 3.1 m/s 21.8 mm
 04:04     22:30    Daglengte: 18:26 Zondag 05 Jun
02:00 10.4° 1015.3 hPa 1.4 m/s 0.5 mm
08:00 13.1° 1015.1 hPa 1.6 m/s 0.7 mm
14:00 19.0° 1014.1 hPa 0.6 m/s 0.7 mm
20:00 16.9° 1013.1 hPa 0.7 m/s 0.7 mm
 04:03     22:31    Daglengte: 18:28 Maandag 06 Jun
02:00 10.8° 1014.7 hPa 0.7 m/s 0.3 mm
08:00 13.5° 1014.6 hPa 0.7 m/s 0.4 mm
14:00 18.8° 1013.3 hPa 0.4 m/s 1.1 mm
20:00 17.6° 1011.8 hPa 0.8 m/s 0.8 mm
 04:02     22:33    Daglengte: 18:31 Dinsdag 07 Jun
02:00 11.0° 1012.9 hPa 0.6 m/s 0.3 mm
08:00 13.9° 1012.2 hPa 1.1 m/s 0.7 mm
14:00 19.0° 1010.4 hPa 0.8 m/s 0.3 mm
20:00 16.7° 1009.2 hPa 1.0 m/s 1.2 mm
 04:01     22:34    Daglengte: 18:33 Woensdag 08 Jun
02:00 11.3° 1010.3 hPa 0.4 m/s 0.7 mm
08:00 13.7° 1010.1 hPa 0.7 m/s 0.8 mm
14:00 19.0° 1009.1 hPa 0.7 m/s 1.4 mm
20:00 16.3° 1008.5 hPa 0.6 m/s 1.4 mm
 04:00     22:35    Daglengte: 18:35 Donderdag 09 Jun
02:00 11.0° 1009.8 hPa 0.4 m/s 0.5 mm
08:00 13.3° 1009.8 hPa 0.4 m/s 0.3 mm
14:00 18.4° 1009.1 hPa 0.9 m/s 0.7 mm
20:00 16.5° 1008.4 hPa 1.0 m/s 0.7 mm
 03:59     22:36    Daglengte: 18:37 Vrijdag 10 Jun
02:00 11.3° 1009.7 hPa 0.3 m/s 0.5 mm
FMI Hirlam - 7.5 km EWN WRFDA - 12 km DWD ICON - 7 km GFS - 25 km Basiskaart






























































Updatetijd (Europe/Amsterdam) Resolutie Lengte Stap
FMI Hirlam 07:00, 13:00, 19:00, 01:00 7.5 km 49h 1h
EWN WRFDA 04:15, 10:15, 16:15, 22:15 12 km 73h 1h
DWD ICON 05:45, 11:45, 17:45, 23:45 7 km 75h 1h
GFS 02:15, 08:15, 14:15, 20:15 25 km 237h 3h
30+ mm
25-30 mm
20-25 mm
15-20 mm
10-15 mm
6-10 mm
4-6 mm
2-4 mm
1-2 mm
0.5-1 mm
0.2-0.5 mm
0.1-0.2 mm
30+ mm
25-30 mm
20-25 mm
15-20 mm
10-15 mm
6-10 mm
4-6 mm
2-4 mm
1-2 mm
0.5-1 mm
0.2-0.5 mm
0.1-0.2 mm
Sneeuwval
Natte sneeuw
Hagel
Vorst
30+ mm
25-30 mm
20-25 mm
15-20 mm
10-15 mm
6-10 mm
4-6 mm
2-4 mm
1-2 mm
0.5-1 mm
0.2-0.5 mm
0.1-0.2 mm
Sneeuwval
Natte sneeuw
Hagel
Vorst